NOAA 16 DEB, 41153

Orbit data source: Space-Track

NOAA 16 DEB, 41153 is space debris in SSO originally from a launch on Thu, 21 Sep 2000 UTC launched from the Air Force Western Test Range (AFWTR). Debris objects in space refer to the collection of defunct objects orbiting the Earth. Examples of debris include non-operational satellites, rocket bodies, and fragments generated from explosions, collisions, or faulty payload assembly.

Loading next visibility...
Identifier
41153, 2000-055CL
Orbit
SSO
Country
Flag of USUS
Related business
Manufacturer
Unknown
Mission
Spacecraft
Bus & Motor
Unknown
Mass
Unknown
Launch date (UTC)
2000-09-21 (26 years ago)
Launch vehicle
Unknown
Launch site
Air Force Western Test Range (AFWTR)
Object type
Payload
Rocket body
Debris
Shape & HBR
Unknown shape, 0.1 m
Radar Cross Section
Small (<0.1 m²)

Expand to show TLE details & history
Last TLE update: 14 hours ago

TLE from 14 hours ago
0 NOAA 16 DEB
1 41153U 00055CL  26126.59264455  .00004756  00000-0  15827-2 0  9998
2 41153  98.7870 241.6057 0015085 257.1964 102.7536 14.38061337540732
Epoch: 2026-05-06T14:13Z
TLE epoch observation values (Epoch: 2026-05-06T14:13:24.489Z)
Latitude
-0.00007°
Longitude
163.80275°
Altitude
770.242 km
Speed
7.468 km/s
True Right ascension
16h 06m 25s
True Declination
0° 00' 00"
Sunlit
Object was in full shadow at epoch
Visualization orbit readout
Latitude
Unknown
Longitude
Unknown
Altitude
Unknown
Speed
Unknown
Apparent Right ascension
Unknown
Apparent Declination
Unknown
Sunlit
N/A
Visualization observer readout
Local Sidereal Time
11:58:46
Azimuth
Unknown
Elevation
Unknown
Doppler factor
Unknown
Orbital elements
Apogee altitude
772.82 km
Perigee altitude
751.278 km
Semi-major axis
7,140.186 km
Eccentricity
0.00151
Inclination
98.787°
RAAN
241.6057°
Arg. of periapsis
257.1964°
True anomaly
102.92213°
Mean anomaly
102.7536°
Eccentric anomaly
102.83787°
Mean motion
3.59732 °/min
Orbital period
100.07 mins
BSTAR
0.0015827
Loading maneuver chart data...
Computing Atmospheric mass density...
Loading historical data...
Loading historical data...
Loading historical data...
Loading historical data...
Loading historical data...
Loading historical data...
Loading historical data...

Documentation

Showing up to 5 results
|